Probability
0 0 0 0 0 0 0 1 1 1 1 2 2 2 2 2 2 2 2 2 3 3 3 3 3 3 3 3 3 3 3 3 3 1 0 0 0 0 0 0 0 0 0
0 0 0 0 0 0 0 0 0 0 0 1 1 1 1 1 1 1 1 2 3 3 4 3 3 3 3 3 3 3 4 4 4 3 1 0 0 0 0 0 0 0 0
0 0 0 0 0 0 0 0 0 0 0 0 0 0 0 0 0 1 2 2 3 4 4 4 3 3 3 3 3 4 5 5 5 4 3 1 0 0 0 0 0 0 0
0 0 0 0 0 0 0 0 0 0 0 0 0 0 0 0 0 1 2 3 3 3 4 3 3 3 3 3 3 4 5 4 4 4 3 2 1 1 0 0 0 0 0
0 0 0 0 0 0 0 0 0 0 0 0 0 0 0 0 0 0 1 2 3 3 2 2 2 3 3 2 2 4 4 3 3 3 2 1 1 1 1 1 0 0 0
0 0 0 0 0 0 0 0 0 0 0 0 0 0 0 0 0 0 0 1 2 1 1 1 2 2 2 2 3 4 4 3 3 2 1 0 1 1 2 1 0 0 0
0 0 0 0 0 0 0 0 0 0 0 0 0 0 0 0 0 0 0 0 0 0 0 1 2 2 2 3 4 4 4 3 3 2 1 0 1 1 2 2 1 0 0
0 0 0 0 0 0 0 0 1 1 0 0 0 0 0 0 0 0 0 0 0 0 0 0 1 1 1 2 2 3 4 4 4 3 3 3 3 4 4 4 1 0 1
0 0 0 0 0 0 0 0 1 1 0 0 0 0 0 0 0 0 0 0 0 0 0 0 0 0 0 1 1 2 3 4 4 4 6 7 8 8 8 6 3 2 3
0 0 0 0 0 0 0 0 1 1 0 0 0 0 0 0 0 0 0 0 0 0 0 0 0 0 0 1 1 1 2 3 3 3 7 10 11 11 9 7 5 5 6
0 0 0 0 0 0 0 0 0 0 0 0 0 0 0 0 0 0 0 0 0 0 0 0 0 0 1 2 2 2 2 2 1 2 6 9 10 10 9 8 7 7 7
0 1 1 1 0 0 0 0 0 0 0 0 0 0 0 0 0 0 0 0 0 0 0 0 0 0 1 2 3 2 2 1 0 1 3 5 6 7 8 7 6 6 6
0 1 1 1 0 0 0 0 0 0 0 0 0 0 0 0 1 1 1 0 0 0 0 0 0 0 1 3 3 3 3 1 0 0 1 1 2 3 4 5 5 5 5
0 0 0 0 0 0 0 0 0 0 0 0 1 1 1 1 2 2 2 1 1 0 0 0 0 1 2 3 3 4 3 1 0 0 0 0 0 0 1 2 4 5 6
1 0 0 0 0 0 0 0 0 1 1 1 2 3 3 3 4 3 3 3 2 1 0 0 0 1 2 3 3 3 2 1 0 0 0 0 0 0 0 1 2 4 5
2 1 1 0 0 0 0 0 0 1 2 3 3 4 4 5 5 4 3 3 3 2 1 0 0 1 2 3 2 2 1 0 0 0 0 0 0 0 0 0 1 2 3
3 2 1 1 1 0 0 0 1 2 3 3 3 3 4 4 4 4 3 2 2 2 1 0 0 1 2 2 1 0 0 0 0 0 0 0 0 0 0 0 1 1 1
2 2 1 2 1 0 0 1 2 3 3 3 3 2 2 2 2 1 1 1 1 1 0 0 0 0 1 1 1 1 1 1 1 0 0 0 0 0 0 0 0 0 0
2 2 2 3 2 2 1 2 3 4 3 2 1 1 1 1 0 0 0 0 0 0 0 0 0 0 0 1 1 1 2 2 2 1 0 0 0 0 0 0 0 0 0
4 3 3 3 4 4 3 3 3 4 3 2 1 0 0 0 0 0 0 0 0 0 0 0 0 0 0 1 2 2 1 2 2 1 1 1 1 1 0 0 0 0 0
3 3 4 4 5 4 3 3 3 3 3 3 2 1 0 0 0 0 0 0 0 0 0 0 0 0 0 1 2 2 1 1 2 2 2 3 3 3 1 1 0 0 0
3 3 4 5 4 3 3 3 3 4 3 3 3 2 1 1 0 0 0 0 0 0 0 0 0 0 0 1 2 3 3 2 2 3 4 5 5 5 4 2 1 0 0
5 4 4 5 4 3 3 3 3 4 4 3 3 3 3 2 1 1 0 0 0 0 0 0 0 0 0 1 2 2 2 2 3 3 4 4 5 5 5 3 1 0 0
9 8 7 6 6 4 3 2 3 4 4 3 3 3 3 3 3 2 1 1 1 1 0 0 0 0 0 0 1 1 1 1 2 2 3 3 4 4 4 3 1 0 0
13 12 10 9 7 6 4 2 2 4 5 4 4 3 3 3 3 3 3 4 4 2 1 0 0 0 0 0 0 0 0 1 2 2 3 3 2 2 2 2 1 0 0
15 13 11 10 8 7 5 3 2 4 6 5 5 4 3 3 3 3 4 5 5 3 2 1 0 0 0 0 0 0 1 2 3 3 2 2 1 1 1 1 0 0 0
Wind_Speed
1 1 1 1 1 1 0 0 1 0 1 1 1 2 3 3 3 3 2 5 6 6 7 7 8 9 9 9 9 9 10 10 10 10 10 10 10 10 10 9 9 8 8
1 1 1 1 1 1 0 0 0 0 0 1 1 1 2 2 2 2 2 3 5 5 6 6 7 8 8 8 9 9 10 10 10 10 10 9 9 9 9 9 10 9 9
1 1 1 1 1 1 1 1 1 1 1 1 1 1 1 1 2 2 2 1 2 4 5 6 7 7 7 8 9 9 9 10 10 9 9 9 9 8 8 9 8 9 9
1 1 1 1 1 2 2 2 1 2 1 1 1 0 1 1 1 1 1 1 1 2 4 5 5 6 6 8 9 9 9 10 10 10 10 10 9 9 9 9 9 8 9
1 2 1 1 1 2 2 1 2 1 1 1 0 0 0 1 1 1 1 1 1 1 2 3 4 4 6 8 9 9 9 9 10 10 10 10 10 10 9 9 9 9 8
2 2 1 1 1 2 2 2 2 2 1 0 1 1 1 0 0 0 1 1 1 1 1 1 1 3 4 4 5 7 8 8 8 9 10 10 10 10 9 9 10 9 9
2 2 1 1 2 2 1 2 1 2 2 1 2 2 2 2 1 1 0 0 1 1 1 1 1 1 2 3 2 3 4 5 6 7 8 8 8 8 7 7 8 8 8
2 2 2 1 1 2 2 2 2 1 1 2 1 1 2 2 2 1 0 0 1 0 1 1 1 2 2 1 1 3 4 4 5 5 6 6 7 7 7 7 6 7 8
2 2 2 2 1 1 1 1 1 1 1 1 1 2 2 1 1 1 1 1 1 0 1 1 1 1 2 2 2 3 3 4 4 5 5 5 5 5 6 6 7 7 7
2 2 2 2 1 1 1 0 1 1 2 1 1 1 1 1 1 1 2 1 1 1 1 1 1 1 1 2 2 2 3 3 4 5 4 4 5 5 5 6 7 7 7
1 1 1 1 1 1 1 1 2 2 1 1 1 1 1 1 1 1 1 2 1 1 1 1 1 1 1 1 1 1 3 3 3 3 3 4 4 5 6 6 7 7 7
1 1 2 1 1 1 1 1 1 2 1 1 1 1 1 1 1 1 1 1 2 2 1 1 1 1 1 1 2 1 2 2 3 3 4 4 4 4 4 5 5 5 6
1 1 1 1 1 1 1 1 2 1 1 1 1 1 1 1 1 1 1 1 1 2 2 1 1 1 1 1 1 1 2 2 2 3 4 3 3 4 4 4 5 5 5
2 2 2 2 1 1 2 2 2 1 1 1 1 1 0 0 1 1 2 1 1 2 2 2 1 1 1 1 2 2 2 2 2 2 3 4 3 3 3 3 3 3 3
2 2 2 2 1 1 2 2 1 1 1 1 1 1 1 1 1 1 1 2 2 1 2 2 2 2 2 1 1 1 1 2 2 2 3 3 3 3 3 3 3 3 3
2 2 2 2 2 1 1 2 1 1 1 0 0 0 0 0 0 1 1 1 2 2 2 2 2 2 2 2 1 1 1 2 2 2 2 2 3 3 4 4 4 3 3
3 3 3 2 2 2 2 2 1 1 1 0 1 1 1 0 0 0 0 1 1 1 2 2 2 2 2 1 2 1 1 1 1 2 2 2 2 2 3 4 4 4 3
3 3 2 2 2 2 2 2 2 2 1 1 1 0 1 0 0 0 0 1 1 2 2 2 2 2 2 1 1 1 1 1 1 2 2 2 2 1 1 2 3 4 3
2 2 2 2 2 2 2 2 2 2 2 2 2 1 2 1 0 1 1 1 1 1 1 2 2 2 2 1 1 1 2 2 2 2 2 2 2 1 1 2 3 4 4
3 3 2 2 2 2 2 2 2 2 2 2 2 2 2 2 2 2 1 1 1 1 1 1 2 2 2 2 1 1 2 2 2 2 3 2 2 2 2 3 3 4 5
3 3 2 2 2 2 2 2 2 2 2 2 2 2 2 2 2 2 1 2 2 1 1 1 1 2 2 1 1 1 2 2 2 1 2 2 2 2 2 3 4 4 5
2 2 2 2 2 3 3 4 3 2 2 2 3 2 2 2 3 3 2 2 3 3 2 2 2 2 3 3 2 2 1 1 2 1 1 2 1 2 2 2 4 5 5
2 2 2 2 3 3 3 3 3 2 2 2 2 2 2 2 2 2 2 2 2 3 3 3 4 4 4 3 2 2 2 2 3 2 1 2 2 3 3 3 4 5 5
3 2 2 3 3 3 3 3 3 2 2 2 2 3 3 3 2 1 1 2 2 3 3 3 4 4 4 3 3 3 3 3 3 2 1 2 2 3 4 3 4 4 4
2 2 2 2 2 2 3 3 3 2 1 2 2 3 3 3 3 1 1 2 3 3 3 2 3 3 4 3 2 1 1 1 2 2 1 2 2 3 3 3 3 3 3
2 2 1 2 3 3 2 3 3 2 2 1 1 2 3 3 3 3 2 2 3 4 3 2 2 3 2 2 2 3 3 2 2 2 1 1 1 1 2 2 2 2 2
Wind_Direction
40 32 14 9 7 16 26 71 98 103 114 156 167 176 187 188 191 192 199 206 208 205 206 211 213 215 215 214 212 210 209 209 204 201 203 205 206 205 204 204 204 204 206
60 42 22 18 9 3 24 93 125 133 118 132 140 171 189 182 185 190 198 213 216 216 218 218 218 218 217 216 216 217 214 212 210 207 208 209 208 208 208 208 210 209 207
101 81 41 24 11 29 51 69 68 74 76 77 95 111 143 163 180 193 194 207 224 230 235 232 227 222 221 219 220 222 219 213 209 209 210 208 207 208 211 212 212 210 208
105 92 63 16 18 51 62 72 67 68 53 55 53 44 104 148 188 183 175 191 222 241 244 241 234 231 231 229 229 228 225 219 214 213 212 211 210 211 213 213 213 210 211
98 98 68 19 38 58 54 61 69 76 72 51 48 69 83 137 181 186 177 182 198 224 244 255 247 246 247 242 236 231 228 222 215 215 218 218 216 214 215 218 216 213 211
98 101 82 48 61 63 50 58 74 62 63 59 56 45 40 47 122 168 212 201 203 224 232 252 255 266 266 258 242 234 229 225 217 217 221 222 221 218 217 222 220 217 216
109 104 80 65 70 74 65 73 87 72 43 37 69 39 24 31 42 23 288 211 230 242 229 238 244 254 273 266 250 235 234 228 218 221 226 226 220 216 217 224 225 222 220
105 116 116 105 81 76 58 56 74 83 41 38 83 79 20 359 5 9 349 250 278 263 244 238 234 231 245 257 261 245 249 245 234 227 224 225 224 222 219 220 220 222 223
119 118 123 113 93 95 87 53 75 116 108 36 51 119 138 227 316 339 344 2 357 351 278 264 250 256 252 253 254 252 246 251 247 243 226 212 216 217 215 219 222 222 225
114 120 123 126 121 112 111 101 96 117 130 105 40 44 110 158 161 324 339 349 1 15 350 321 305 296 286 269 259 244 244 248 245 244 237 229 218 217 219 219 224 225 224
91 109 116 117 125 122 128 108 92 95 115 137 137 115 84 61 90 158 292 328 342 331 330 317 320 315 292 272 257 250 244 245 246 242 232 230 228 227 228 228 229 231 227
76 98 120 133 142 153 156 134 112 100 106 113 117 117 140 145 174 164 205 282 303 308 319 335 350 325 310 290 277 266 245 243 237 233 236 237 239 239 240 237 234 237 234
181 203 159 147 156 173 155 129 117 114 124 125 140 150 161 195 188 176 177 235 287 308 319 324 319 320 312 310 300 300 264 257 239 234 236 241 247 247 240 239 238 239 242
195 190 169 164 169 159 148 131 118 146 123 137 142 158 157 232 202 186 180 179 270 308 308 296 314 306 304 291 309 298 282 282 261 253 242 238 240 243 238 234 234 234 235
185 165 163 163 164 152 148 140 135 163 131 144 169 175 191 236 203 214 195 189 187 246 281 291 295 300 296 283 312 295 280 303 299 281 257 246 245 238 232 229 224 224 231
165 150 159 164 155 141 133 124 125 126 115 114 155 74 4 312 243 214 205 210 206 208 245 267 268 292 302 303 332 307 290 331 325 309 290 274 267 250 233 228 221 218 222
175 174 176 170 163 157 152 145 162 149 136 71 41 80 335 308 37 292 179 188 207 201 232 273 278 296 285 307 339 324 300 314 320 314 306 296 283 264 243 230 226 222 218
180 183 177 170 171 159 163 169 188 173 168 182 230 212 279 272 21 351 337 218 228 218 210 257 290 297 288 298 325 319 330 320 303 324 302 284 264 260 277 245 231 223 218
183 187 173 178 185 184 191 196 189 188 201 217 223 229 247 214 254 276 270 256 247 237 221 235 277 291 292 308 323 326 328 316 309 323 319 296 274 271 264 252 240 228 224
181 190 185 185 188 185 190 195 192 192 208 230 237 238 238 217 222 234 236 237 235 234 217 233 271 288 285 289 290 306 320 324 311 322 327 322 305 285 268 255 256 243 230
195 190 179 182 190 200 203 193 199 204 214 241 257 257 251 244 241 242 244 225 214 217 209 231 261 283 282 281 275 274 288 305 294 296 303 312 311 294 280 269 264 262 246
195 182 188 192 207 226 222 209 200 202 219 234 252 268 273 267 281 281 277 240 207 204 206 218 242 252 265 262 258 256 266 288 291 299 281 295 295 285 281 266 273 266 256
193 204 208 200 216 233 224 219 210 199 216 230 240 259 276 283 300 286 293 292 261 242 223 215 229 240 243 239 239 258 255 252 261 286 276 282 282 274 276 281 280 266 260
201 208 211 209 216 235 226 223 215 206 221 237 239 247 255 269 273 273 289 303 283 267 255 231 222 233 237 233 221 232 244 258 268 269 248 267 278 279 291 286 285 275 271
208 210 209 201 209 243 225 212 187 183 219 244 252 252 251 252 262 243 232 271 287 287 279 276 264 258 255 241 202 193 226 249 276 279 229 248 278 289 288 283 287 290 285
206 197 212 216 215 232 229 209 185 182 217 248 261 260 252 255 250 233 218 232 262 278 288 299 303 298 278 250 218 204 207 219 249 270 232 239 274 299 296 292 306 316 307